Temperature
18 18 18 18 18 18 17 17 17 17 18 18 18 18 18 18 18 18 18 18 18 18 18 17 17 18 18 18 18 18 18 18 18 18 18 18 18 17 17 17 17 17 17
18 18 18 18 18 18 17 17 17 17 17 17 17 18 18 18 18 18 18 18 18 18 18 17 17 17 18 18 18 18 18 18 18 18 18 18 18 17 17 17 17 17 17
18 18 17 18 18 17 17 17 17 17 17 17 17 17 17 17 18 18 18 18 18 18 18 18 17 17 18 18 18 18 18 18 18 18 18 18 18 17 17 17 17 17 17
17 17 17 17 17 17 17 17 17 17 17 17 17 17 17 17 17 17 17 18 18 18 18 18 17 17 17 18 18 18 18 18 18 18 18 18 17 17 17 17 17 17 17
17 17 17 17 17 17 17 16 16 16 16 16 16 16 17 17 17 17 17 17 18 18 18 18 18 17 17 18 18 18 18 18 18 18 18 18 17 17 17 17 17 17 17
17 17 17 17 16 16 16 16 16 16 16 16 16 16 16 17 17 17 17 17 17 17 18 18 17 17 17 17 18 18 18 18 18 18 18 18 18 17 17 17 17 17 17
16 16 16 16 16 16 16 15 15 16 16 16 15 15 16 16 16 17 17 17 17 17 17 18 17 17 17 17 17 17 18 18 18 18 18 18 17 17 17 17 17 17 17
15 15 15 15 15 15 15 15 15 15 15 15 15 15 15 16 16 17 17 17 17 17 17 17 17 17 17 17 17 17 18 18 18 18 18 17 17 17 17 17 17 17 17
15 14 14 14 14 15 14 14 14 14 14 15 14 14 15 15 16 17 17 17 17 17 17 17 17 17 17 17 17 17 17 17 17 17 17 17 17 17 17 17 17 17 17
14 14 14 14 14 14 14 14 14 14 14 14 14 14 14 15 15 16 17 17 17 17 17 18 17 17 17 17 17 17 17 17 17 17 17 17 17 17 17 17 17 17 17
14 14 13 14 14 14 14 14 14 14 14 14 14 14 14 14 15 15 16 17 17 17 17 17 18 18 17 17 17 17 17 17 17 17 17 17 17 17 17 17 17 17 17
13 13 13 13 13 13 13 13 13 13 13 14 14 13 14 14 14 15 15 16 17 17 17 17 17 17 17 17 17 17 17 17 17 17 17 17 17 17 17 17 17 17 16
13 13 13 13 13 13 13 13 13 13 13 13 13 13 13 13 14 14 14 15 16 16 17 17 17 17 17 17 17 17 17 17 17 17 17 17 16 16 16 17 17 17 16
12 12 12 12 12 12 12 12 12 12 13 13 13 13 13 13 13 14 14 14 15 16 16 17 17 17 17 17 17 17 17 17 16 16 16 16 16 16 16 16 16 16 16
11 11 11 11 12 12 12 12 12 12 12 12 12 12 13 13 13 13 13 14 14 15 15 16 16 17 17 17 17 17 16 16 16 16 16 16 16 16 16 16 16 16 16
11 11 11 11 11 11 11 11 11 11 11 12 12 12 12 12 13 13 13 13 13 14 14 15 16 16 16 16 16 16 16 16 16 16 16 16 16 16 16 16 16 16 16
10 10 10 10 10 10 10 10 11 11 11 11 11 11 11 12 12 12 12 12 12 13 14 14 15 15 15 16 16 16 16 16 16 16 16 16 16 16 16 16 16 16 16
9 9 9 9 9 10 10 10 10 10 10 10 11 11 11 11 11 12 12 12 12 12 13 14 14 14 15 15 15 15 15 15 15 15 16 16 16 16 16 16 16 16 16
9 9 9 9 9 9 9 9 9 9 10 10 10 10 11 11 11 11 11 11 11 12 12 13 13 14 14 14 14 14 15 15 15 15 15 15 15 15 15 16 16 16 16
8 8 8 8 8 8 8 9 9 9 9 9 10 10 10 10 11 11 11 11 11 11 11 12 12 13 13 13 14 14 14 14 14 14 14 14 15 15 15 15 15 15 15
8 8 8 8 8 8 8 8 8 8 8 9 9 9 10 10 10 10 10 11 11 11 11 11 12 12 12 12 13 13 14 13 13 13 14 14 14 14 14 14 15 15 15
8 8 8 8 8 7 7 7 7 7 8 8 8 9 9 9 10 10 10 10 10 10 10 11 11 11 12 12 13 13 13 13 12 13 13 13 13 13 14 14 14 14 14
8 8 8 7 7 7 7 7 7 7 7 7 8 8 8 9 9 9 10 10 10 10 10 10 11 11 11 12 12 12 13 13 14 13 13 12 12 13 13 13 13 13 14
7 7 7 7 7 7 7 7 7 7 7 7 7 7 8 8 9 9 9 9 10 10 10 10 10 11 11 11 11 12 13 13 13 12 12 12 12 12 12 12 12 13 13
7 8 7 7 7 7 7 7 7 6 6 7 7 7 7 8 8 9 9 9 9 9 10 10 10 10 10 11 11 11 11 12 12 12 12 12 12 11 11 11 12 12 12
7 7 7 7 7 7 7 7 6 6 6 6 7 7 7 7 8 8 8 9 9 9 9 9 9 10 10 10 10 11 11 11 12 11 11 11 12 11 11 11 11 11 11
Wind_Speed
5 4 3 5 7 9 9 7 8 8 9 10 12 12 11 14 15 14 13 16 19 24 28 29 28 27 26 25 25 25 24 23 22 22 21 20 19 19 19 18 18 17 17
3 2 2 2 3 6 8 8 8 8 8 8 10 10 10 12 14 15 15 16 19 21 25 27 27 27 27 26 26 26 25 25 24 23 23 22 21 21 20 20 19 19 18
3 2 2 3 3 6 7 6 7 7 8 9 10 11 9 10 11 14 16 15 17 22 26 27 28 28 27 27 27 26 26 26 25 25 24 24 23 22 22 21 21 20 20
1 1 1 3 3 5 4 4 5 6 7 7 7 8 8 7 9 11 13 15 16 17 23 28 28 28 28 28 27 26 26 26 26 26 26 25 25 24 23 23 22 22 22
1 0 1 2 3 2 3 4 3 4 5 6 7 7 7 8 8 9 9 12 15 17 18 23 28 29 29 28 27 27 27 27 27 27 27 26 26 25 25 24 24 23 23
0 0 1 2 2 2 3 3 4 4 5 5 7 8 7 8 7 8 10 9 12 17 19 19 20 24 28 28 28 28 28 28 27 27 27 27 26 26 26 25 25 25 24
2 1 1 2 2 2 3 3 3 5 5 4 4 5 6 7 8 8 8 8 10 12 16 18 17 17 18 27 29 28 28 28 27 27 27 27 26 26 26 26 26 26 25
3 2 2 3 3 2 3 3 3 3 3 4 3 3 3 4 6 9 7 8 10 8 10 14 15 16 16 16 21 27 28 27 27 27 27 27 26 26 26 27 27 26 26
4 4 4 4 3 3 3 3 2 2 3 3 3 3 3 4 2 3 6 8 9 9 9 7 12 16 18 16 17 23 27 27 26 25 25 25 25 26 26 26 26 26 26
5 6 5 5 5 4 3 4 3 3 3 3 2 2 3 2 2 2 3 4 7 8 9 9 10 11 16 15 17 19 23 25 25 24 23 23 24 24 25 25 26 26 26
5 5 5 5 5 4 4 4 3 3 3 3 2 2 3 3 3 3 3 3 2 4 6 7 8 8 12 14 15 17 21 22 23 22 22 22 22 23 24 24 25 25 25
4 5 4 4 5 4 5 5 4 4 3 3 3 2 2 2 2 2 4 3 3 3 3 4 6 7 9 12 15 18 19 20 19 19 19 19 20 21 22 23 23 23 24
3 5 4 4 4 5 5 5 5 4 4 3 3 3 3 3 2 2 3 3 2 2 1 2 4 5 7 10 12 17 17 17 16 15 15 15 16 17 18 19 20 21 21
5 5 4 5 5 5 5 5 4 5 4 4 4 3 3 3 2 2 2 2 2 2 1 2 1 3 4 8 11 14 12 14 14 13 12 12 12 13 14 15 16 17 18
4 4 4 5 5 5 6 5 5 6 5 5 5 5 4 3 3 2 2 2 3 3 3 2 0 1 2 5 11 11 11 12 12 11 10 9 9 10 10 11 11 12 13
4 5 6 5 6 6 6 6 6 6 7 6 5 5 5 3 4 3 3 2 3 3 3 2 1 1 3 5 8 10 11 13 11 10 9 8 7 8 8 9 9 10 10
6 6 6 6 7 7 6 6 7 8 8 8 7 7 7 5 4 4 3 3 2 3 4 2 1 2 3 7 6 8 10 9 9 10 9 8 8 7 8 8 8 8 8
7 7 7 7 7 7 7 7 8 8 9 10 9 8 8 6 6 5 4 4 4 4 4 4 2 2 3 8 8 8 7 8 8 9 10 10 9 8 8 8 7 7 6
7 7 7 7 8 8 8 8 8 9 9 10 10 10 10 8 8 6 6 5 5 4 3 3 3 3 2 6 7 6 7 6 6 9 10 10 10 9 9 8 7 7 6
8 8 8 8 8 9 8 9 9 9 9 10 10 11 11 11 10 9 7 7 6 5 4 4 4 4 4 5 7 8 6 4 5 6 7 8 10 10 9 8 7 7 6
9 8 8 9 9 8 9 9 9 9 9 9 10 10 12 14 15 12 8 7 7 6 4 5 5 5 5 7 8 6 7 7 4 4 5 4 5 5 5 6 6 7 7
9 8 9 9 10 10 12 13 10 8 8 8 9 9 11 14 16 17 15 13 12 9 8 6 5 6 7 6 5 8 8 7 5 5 5 4 3 3 2 4 5 7 7
9 9 9 9 10 12 15 16 16 10 9 9 9 8 10 11 13 11 13 14 14 14 13 9 7 7 7 8 9 10 10 9 5 8 6 4 3 3 2 4 6 7 8
9 9 10 10 10 12 15 16 16 11 9 10 10 10 10 9 10 11 10 9 8 9 11 9 8 8 7 7 10 10 9 7 5 7 6 4 4 3 2 3 5 7 8
10 10 9 10 10 12 14 15 14 7 8 10 10 10 11 10 12 14 11 9 8 7 10 12 11 10 9 10 9 8 10 10 7 6 4 5 5 3 2 2 3 6 8
10 10 10 9 10 11 13 15 13 6 8 8 8 9 13 13 13 15 11 10 9 8 7 8 8 7 7 8 10 9 10 11 7 6 6 6 6 5 4 2 2 4 6
Wind_Direction
216 221 224 229 226 223 219 217 218 218 221 223 225 226 227 226 229 230 232 234 225 216 212 208 204 202 202 202 202 201 201 202 201 200 200 200 200 198 198 198 197 197 197
207 218 237 238 236 233 230 222 220 221 223 223 227 228 229 228 228 229 229 232 228 219 215 213 210 208 209 208 206 205 205 205 205 203 203 203 203 203 202 202 202 201 201
194 204 236 247 250 252 245 235 230 225 226 228 228 228 225 224 225 227 227 225 224 218 213 212 213 213 213 213 212 210 208 208 207 206 206 206 206 206 205 205 206 206 205
138 163 262 273 272 270 255 248 238 232 231 227 229 234 231 225 226 227 225 220 217 217 216 215 217 218 218 217 216 215 213 211 210 209 209 209 208 208 208 208 208 209 209
69 117 274 282 294 285 273 268 253 233 236 233 234 234 233 230 230 231 226 220 216 215 215 219 220 221 222 222 220 219 215 214 213 212 212 212 211 211 210 210 211 211 212
86 62 261 279 295 303 293 277 262 254 245 239 247 247 238 232 227 227 229 224 219 219 218 218 220 224 223 222 221 220 218 216 215 215 215 214 214 213 212 212 213 213 213
213 214 267 282 280 278 282 290 279 266 257 242 246 259 253 237 233 232 229 222 220 220 215 215 214 215 219 223 223 221 220 219 217 217 217 216 216 214 213 214 215 215 215
241 229 236 261 267 268 289 296 290 272 264 233 215 230 258 264 242 234 226 223 224 221 217 216 211 211 213 213 220 220 221 221 220 219 218 218 217 216 215 215 216 217 216
255 248 240 239 245 237 254 265 268 273 278 259 211 202 211 229 262 258 234 229 221 219 218 211 210 211 211 209 211 217 220 220 220 221 220 217 216 217 217 217 217 218 218
260 254 244 235 235 229 233 248 239 242 258 276 260 235 238 221 218 279 285 244 228 221 215 215 212 208 207 204 206 210 215 216 218 220 220 218 217 217 218 219 219 219 218
275 263 249 239 236 229 227 235 237 230 231 238 247 260 259 246 223 224 260 272 261 237 223 213 204 201 202 198 200 206 209 211 214 217 220 219 218 217 218 220 222 221 220
288 278 262 249 241 235 232 230 229 228 232 238 233 219 224 229 227 212 237 252 254 256 236 217 203 196 194 193 198 201 202 205 208 212 216 218 218 218 219 219 222 223 222
280 278 269 256 249 243 242 233 228 228 227 233 239 228 218 224 224 219 226 241 249 267 260 229 212 194 187 181 190 191 192 191 195 200 206 211 213 215 216 217 220 222 223
259 268 267 255 254 251 249 238 237 235 227 227 235 231 223 229 216 215 213 205 230 261 252 251 253 192 169 165 170 169 171 176 179 184 191 198 203 208 211 214 217 220 222
279 290 282 267 260 254 250 241 237 236 228 227 229 229 226 220 214 218 214 198 186 213 233 246 229 118 130 139 153 150 147 157 162 167 173 181 189 196 201 204 208 212 214
288 296 292 282 271 260 251 241 244 243 232 231 226 227 231 223 215 210 208 210 196 195 222 230 212 173 146 140 140 137 138 141 145 151 156 165 172 179 186 192 199 206 211
278 277 274 275 273 267 257 244 241 242 237 236 230 224 229 220 212 208 203 202 210 197 215 241 235 148 137 145 137 128 130 128 131 140 143 147 153 160 167 173 179 187 196
273 269 267 267 267 269 260 249 247 247 237 237 232 225 228 223 213 206 201 207 212 211 202 214 210 180 166 161 152 144 138 130 129 134 133 132 134 135 138 143 149 157 168
272 270 266 262 262 262 258 252 244 243 238 235 230 224 225 215 215 208 200 203 209 216 210 199 205 198 174 160 151 144 132 123 128 129 123 121 122 121 122 125 131 141 149
269 268 264 259 257 257 255 253 249 244 241 238 233 226 222 215 214 207 205 202 199 202 203 201 198 192 184 170 160 155 148 141 136 130 117 116 115 110 110 114 120 132 140
276 269 266 263 259 258 259 253 247 251 243 241 238 231 225 220 216 208 204 198 193 195 198 202 199 188 186 178 178 166 158 145 127 135 127 122 111 100 98 102 110 120 128
274 271 266 263 262 267 266 262 253 248 243 238 239 237 235 229 222 214 209 199 191 192 197 200 202 196 192 188 176 166 158 158 161 159 139 132 118 112 95 99 116 123 125
275 274 269 264 262 260 259 259 258 247 236 233 231 232 241 233 217 214 213 208 204 202 195 189 197 204 192 186 181 178 174 168 157 160 141 135 129 122 98 108 126 130 131
275 274 271 266 263 265 260 255 257 249 236 232 230 227 228 231 218 204 203 203 204 206 204 197 197 203 199 189 188 185 175 151 113 150 145 134 136 123 107 95 125 134 136
281 276 271 268 265 267 262 256 252 241 235 236 234 230 223 222 219 202 193 195 203 213 213 205 202 203 199 190 180 170 166 166 159 167 160 132 136 121 109 107 114 132 137
280 281 278 272 265 268 266 257 248 231 231 232 232 229 223 216 215 202 194 191 201 209 200 199 207 213 204 196 186 187 182 178 162 161 166 141 141 140 139 135 131 134 134
Height
1534 1534 1534 1535 1535 1535 1535 1535 1535 1536 1536 1537 1537 1539 1540 1541 1542 1544 1545 1547 1548 1550 1552 1554 1556 1558 1560 1562 1564 1565 1567 1569 1571 1573 1576 1578 1580 1582 1584 1586 1587 1589 1591
1531 1531 1531 1531 1530 1530 1530 1530 1530 1531 1531 1532 1532 1533 1535 1536 1537 1539 1540 1542 1543 1545 1547 1549 1551 1554 1556 1558 1560 1562 1564 1566 1568 1570 1573 1575 1577 1579 1582 1584 1586 1587 1589
1528 1527 1527 1526 1526 1525 1525 1524 1525 1525 1525 1526 1526 1527 1529 1530 1531 1533 1535 1536 1538 1540 1542 1544 1546 1548 1550 1553 1555 1557 1560 1562 1565 1567 1569 1572 1574 1576 1579 1581 1583 1585 1587
1524 1523 1523 1522 1521 1520 1519 1519 1518 1519 1519 1519 1520 1521 1522 1524 1525 1527 1528 1530 1532 1534 1536 1538 1541 1543 1545 1548 1550 1552 1555 1558 1560 1563 1566 1568 1571 1573 1576 1578 1580 1582 1585
1520 1519 1518 1517 1516 1515 1514 1513 1513 1513 1513 1513 1514 1514 1516 1517 1519 1520 1522 1524 1526 1528 1530 1532 1534 1537 1539 1542 1544 1547 1550 1553 1556 1559 1561 1564 1567 1570 1572 1575 1577 1579 1582
1517 1516 1514 1513 1512 1510 1509 1508 1507 1508 1507 1507 1508 1508 1509 1510 1511 1513 1515 1517 1519 1521 1523 1526 1528 1531 1533 1536 1539 1542 1544 1547 1550 1554 1557 1559 1562 1565 1568 1571 1573 1576 1578
1514 1512 1511 1510 1508 1506 1505 1503 1502 1502 1501 1501 1501 1501 1503 1504 1505 1507 1509 1511 1513 1515 1517 1519 1522 1525 1527 1530 1533 1536 1539 1542 1545 1548 1551 1555 1558 1561 1563 1566 1569 1572 1574
1511 1509 1508 1506 1504 1503 1501 1500 1499 1497 1497 1497 1496 1496 1497 1498 1498 1500 1502 1504 1507 1509 1511 1513 1516 1519 1522 1525 1528 1531 1533 1536 1540 1543 1546 1549 1552 1556 1559 1562 1564 1567 1570
1507 1506 1505 1503 1502 1500 1498 1497 1495 1495 1493 1492 1493 1494 1493 1492 1493 1495 1496 1498 1501 1503 1505 1508 1511 1514 1517 1520 1523 1526 1529 1531 1534 1537 1540 1544 1547 1550 1553 1556 1559 1562 1565
1503 1502 1501 1500 1498 1497 1495 1494 1492 1491 1490 1489 1488 1489 1490 1490 1491 1491 1492 1493 1496 1498 1500 1503 1506 1509 1512 1515 1518 1521 1524 1526 1529 1532 1535 1538 1541 1545 1548 1551 1554 1557 1559
1499 1498 1497 1496 1494 1493 1492 1491 1489 1488 1487 1486 1485 1485 1486 1487 1488 1489 1489 1489 1491 1493 1496 1498 1501 1505 1508 1510 1513 1516 1519 1522 1525 1527 1530 1533 1536 1539 1542 1545 1548 1551 1554
1495 1494 1492 1491 1490 1489 1488 1487 1486 1485 1484 1483 1482 1482 1483 1483 1484 1485 1485 1486 1487 1489 1492 1494 1497 1500 1503 1506 1509 1512 1515 1518 1520 1523 1526 1528 1530 1533 1536 1539 1542 1545 1548
1490 1489 1487 1486 1485 1484 1483 1483 1482 1481 1481 1480 1479 1478 1479 1479 1480 1481 1482 1483 1484 1486 1488 1490 1492 1496 1499 1502 1506 1509 1512 1514 1517 1519 1521 1524 1526 1528 1531 1534 1537 1540 1543
1485 1483 1482 1481 1480 1479 1478 1478 1477 1477 1476 1476 1475 1475 1474 1475 1476 1477 1478 1480 1480 1482 1484 1486 1489 1492 1495 1498 1502 1505 1508 1510 1513 1515 1517 1519 1521 1524 1526 1529 1532 1535 1537
1479 1477 1476 1475 1474 1473 1473 1472 1472 1472 1471 1471 1471 1471 1471 1471 1471 1472 1473 1475 1477 1478 1480 1482 1484 1487 1491 1494 1498 1501 1504 1507 1509 1511 1513 1515 1517 1519 1522 1524 1527 1530 1532
1473 1472 1470 1469 1468 1467 1466 1466 1466 1466 1466 1466 1466 1466 1466 1467 1467 1468 1469 1470 1472 1475 1476 1478 1480 1484 1487 1490 1494 1497 1500 1503 1505 1507 1509 1511 1513 1515 1518 1520 1522 1525 1528
1467 1465 1464 1462 1461 1460 1459 1459 1459 1459 1459 1460 1460 1461 1461 1462 1462 1463 1464 1465 1467 1470 1472 1474 1476 1480 1483 1486 1490 1493 1496 1498 1501 1503 1505 1507 1509 1511 1514 1516 1518 1521 1523
1461 1459 1457 1455 1454 1453 1452 1452 1451 1452 1452 1453 1454 1455 1456 1457 1457 1458 1459 1460 1462 1465 1467 1469 1472 1475 1479 1482 1486 1489 1492 1495 1497 1499 1501 1503 1506 1508 1510 1512 1514 1517 1519
1455 1452 1450 1448 1447 1446 1445 1444 1444 1444 1444 1445 1446 1448 1449 1451 1452 1453 1454 1456 1458 1460 1462 1464 1467 1470 1474 1477 1481 1485 1488 1491 1494 1496 1498 1500 1502 1505 1507 1509 1511 1513 1515
1448 1445 1443 1441 1440 1438 1437 1436 1436 1436 1436 1437 1438 1440 1442 1444 1446 1448 1449 1451 1453 1455 1457 1459 1462 1465 1469 1472 1476 1479 1483 1486 1490 1493 1495 1497 1499 1502 1504 1506 1508 1510 1512
1441 1438 1436 1434 1432 1430 1429 1428 1428 1427 1428 1428 1430 1431 1434 1436 1439 1442 1444 1446 1448 1449 1451 1454 1457 1459 1462 1466 1470 1474 1478 1482 1486 1489 1492 1494 1497 1499 1501 1503 1505 1507 1509
1434 1431 1428 1426 1424 1422 1421 1420 1420 1419 1419 1420 1421 1423 1425 1428 1431 1434 1437 1440 1442 1444 1447 1449 1451 1454 1457 1461 1465 1469 1473 1477 1481 1485 1488 1492 1494 1497 1499 1501 1503 1505 1506
1427 1424 1421 1418 1416 1414 1413 1412 1411 1411 1411 1412 1413 1415 1417 1420 1423 1427 1430 1434 1437 1439 1442 1444 1446 1449 1452 1456 1460 1464 1467 1472 1476 1480 1485 1488 1491 1494 1497 1499 1501 1503 1504
1420 1417 1414 1411 1409 1406 1405 1404 1403 1402 1402 1403 1404 1406 1409 1412 1416 1420 1424 1427 1430 1433 1436 1439 1442 1444 1448 1451 1455 1459 1463 1468 1474 1478 1482 1485 1488 1491 1494 1497 1499 1501 1503
1414 1411 1407 1404 1401 1399 1398 1396 1395 1394 1394 1395 1396 1398 1401 1404 1409 1413 1417 1420 1424 1427 1431 1434 1437 1440 1443 1446 1450 1454 1458 1463 1467 1472 1477 1481 1485 1489 1492 1495 1497 1499 1501
1408 1405 1401 1398 1395 1393 1391 1389 1388 1387 1387 1388 1389 1391 1394 1397 1402 1406 1410 1414 1418 1422 1426 1429 1432 1435 1438 1441 1444 1448 1452 1456 1460 1466 1471 1476 1481 1485 1489 1492 1495 1497 1499